Overview Statistics Trail Chart Weather Telemetry Raw packets
 

This is the latest recevied weather packets stored in our database for station/object WA6ODQ-13. If no packets are shown the sender has not sent any weather packets the latest 10 day(s).

<< 66 67 68 69 70 71 72 >>
Time Temp. Humidity Pressure Rain* Wind** Luminosity Snow
1788206044 20.56° C 63% 1010.4 hPa 0 mm - 676 W/m² -
1788205739 21.11° C 62% 1010.5 hPa 0 mm - 677 W/m² -
1788205434 20.56° C 62% 1010.4 hPa 0 mm - 675 W/m² -
1788205134 20.56° C 63% 1010.5 hPa 0 mm - 674 W/m² -
1788204829 20.56° C 63% 1010.6 hPa 0 mm - 674 W/m² -
1788204524 20.56° C 63% 1010.9 hPa 0 mm - 671 W/m² -
1788204224 20.56° C 63% 1010.6 hPa 0 mm - 653 W/m² -
1788203920 20.56° C 64% 1010.6 hPa 0 mm - 677 W/m² -
1788203616 20.56° C 64% 1010.7 hPa 0 mm - 663 W/m² -
1788203312 20° C 66% 1010.8 hPa 0 mm - 631 W/m² -
1788203011 20.56° C 64% 1010.8 hPa 0 mm - 578 W/m² -
1788202711 20° C 65% 1011 hPa 0 mm - 610 W/m² -
1788202407 18.89° C 67% 1011 hPa 0 mm - 571 W/m² -
1788202105 18.89° C 68% 1010.9 hPa 0 mm - 568 W/m² -
1788201802 19.44° C 68% 1011.1 hPa 0 mm - 468 W/m² -
1788201502 19.44° C 68% 1011 hPa 0 mm - 494 W/m² -
1788201201 18.89° C 70% 1011 hPa 0 mm - 457 W/m² -
1788200901 18.89° C 70% 1011 hPa 0 mm - 389 W/m² -
1788200596 18.33° C 71% 1010.8 hPa 0 mm - 416 W/m² -
1788200291 17.78° C 72% 1010.7 hPa 0 mm - 397 W/m² -
1788199986 17.78° C 72% 1010.9 hPa 0 mm - 327 W/m² -
1788199681 17.78° C 74% 1010.8 hPa 0 mm - 312 W/m² -
1788199376 17.78° C 74% 1010.8 hPa 0 mm - 261 W/m² -
1788199075 17.22° C 76% 1010.7 hPa 0 mm - 208 W/m² -
1788198772 16.67° C 77% 1011 hPa 0 mm - 201 W/m² -

* Rain latest hour (hover to see other rain measurements)
** Current wind speed in m/s (hover to see current wind gust speed)